Location: Doverdale
(52.2833°N, 2.2000°W)
Time: 04:51:34
(UTC+00:00)

ARGOS - Pass Details

Date: 29 October 2020
Orbit: 820 x 835 km, 98.4° (Epoch: 25 November)

Event Time Altitude Azimuth Distance (km) Brightness Sun altitude
Exits shadow 18:17:20 13° 126° (SE) 2,246 5.0 -14.6°
Maximum altitude 18:21:44 38° 63° (ENE) 1,261 3.7 -15.3°
Drops below altitude 10° 18:26:43 10° 357° (N) 2,460 5.6 -16.1°
Sets 18:29:13 0° 350° (N) 3,398 6.5 -16.5°
